FW2278 Weather Reports


time (UTC)temp
F
wind
direction
speed
knots
gust
knots
rain 1hr
in
rain 24hr
in
rain mn
in
humidity
%
barometer
mb
20260504140803 62 263 0.0 0.0 0.01 0.24 0.00 95 1017.8
20260504140304 62 263 0.0 0.0 0.01 0.24 0.00 95 1017.8
20260504130303 63 318 0.0 0.0 0.00 0.24 0.24 95 1018.0
20260504120304 62 319 0.0 0.0 0.00 0.24 0.24 95 1018.0
20260504110304 62 329 0.0 0.0 0.00 0.24 0.24 94 1017.4
20260504100304 64 329 0.0 0.0 0.00 0.24 0.24 93 1016.4
20260504081304 66 329 0.0 0.0 0.00 0.24 0.24 91 1016.1
20260504080804 66 329 0.0 0.0 0.00 0.24 0.24 90 1016.1
20260504080303 66 329 0.0 0.0 0.00 0.24 0.24 90 1016.1
20260504070303 68 329 0.0 0.0 0.00 0.24 0.24 86 1015.9
20260504045804 69 273 0.0 0.0 0.00 0.24 0.24 89 1016.0
20260504045304 69 273 0.0 0.0 0.00 0.24 0.24 89 1016.0
20260504044803 69 273 0.0 0.0 0.00 0.24 0.24 90 1016.0
20260504044303 69 273 0.0 0.0 0.00 0.24 0.24 91 1015.9
20260504043804 68 273 0.0 0.0 0.00 0.24 0.24 92 1015.9
20260504043304 68 273 0.0 0.0 0.00 0.24 0.24 93 1015.9
20260504041304 67 40 0.0 0.0 0.00 0.24 0.24 94 1016.0
20260504040803 67 40 0.0 0.0 0.00 0.24 0.24 95 1016.2
20260504040304 67 40 0.0 0.0 0.00 0.24 0.24 95 1016.2
20260504035804 66 40 0.0 0.0 0.00 0.24 0.24 95 1016.2
20260504035305 66 40 0.0 0.0 0.00 0.24 0.24 95 1016.2
20260504034803 65 40 0.0 0.0 0.00 0.24 0.24 95 1016.3
20260504034304 65 40 0.0 0.0 0.00 0.24 0.24 95 1016.5
20260504033803 65 40 0.0 0.0 0.00 0.24 0.24 95 1016.4
20260504033304 65 40 0.0 0.0 0.00 0.24 0.24 95 1016.3
20260504032804 64 40 0.0 0.0 0.00 0.24 0.24 95 1016.6
20260504032304 64 40 0.0 0.0 0.00 0.24 0.24 95 1016.7
20260504031304 64 40 0.0 0.0 0.00 0.24 0.24 95 1016.9
20260504030304 64 40 0.0 0.0 0.01 0.24 0.24 95 1017.1
20260504024804 65 38 0.0 0.0 0.02 0.24 0.24 95 1017.4
20260504024304 65 51 1.7 6.1 0.04 0.24 0.24 95 1017.6
20260504023304 65 51 0.9 5.2 0.06 0.24 0.24 95 1017.7
20260504022804 64 52 0.0 0.0 0.07 0.24 0.24 95 1017.9
20260504022304 64 52 0.0 0.0 0.09 0.24 0.24 95 1017.8
20260504021804 65 52 0.0 0.0 0.09 0.24 0.24 95 1018.0
20260504021304 65 52 0.0 0.0 0.10 0.24 0.24 95 1018.1
20260504020804 65 52 0.0 0.0 0.10 0.24 0.24 95 1018.2
20260504015305 65 52 0.0 0.0 0.10 0.22 0.22 95 1018.7
20260504014303 65 52 0.0 0.0 0.12 0.20 0.20 95 1018.9
20260504013804 65 52 0.0 0.0 0.10 0.17 0.17 95 1019.0
20260504013304 65 52 0.0 0.0 0.10 0.17 0.17 95 1019.0
20260504012804 64 52 0.0 0.0 0.10 0.17 0.17 95 1019.1
20260504011804 64 52 0.0 0.0 0.09 0.14 0.14 95 1019.2
20260504005304 64 52 0.0 0.0 0.08 0.12 0.12 95 1019.1
20260504004303 64 52 0.0 0.0 0.05 0.08 0.08 95 1019.3
20260504002804 64 52 0.0 0.0 0.06 0.06 0.06 95 1019.0
20260504002304 64 52 0.0 0.0 0.04 0.05 0.05 94 1019.2
20260504001803 64 52 0.0 0.0 0.05 0.05 0.05 94 1019.0
20260504000804 64 52 0.0 0.0 0.04 0.04 0.04 94 1019.1
20260504000304 64 52 0.0 0.0 0.04 0.04 0.04 94 1019.0
20260503235804 64 52 0.0 0.0 0.04 0.04 0.04 94 1019.1
20260503235304 64 52 0.0 0.0 0.04 0.04 0.04 95 1019.1
20260503234304 64 52 0.0 0.0 0.03 0.03 0.03 94 1019.2
20260503233304 64 52 0.0 0.0 0.02 0.02 0.02 95 1019.2
20260503232804 64 52 0.0 0.0 0.01 0.01 0.01 95 1019.3
20260503232306 63 52 0.0 0.0 0.01 0.01 0.01 95 1019.4
20260503231804 63 52 0.0 0.0 0.00 0.00 0.00 95 1019.6
20260503231304 63 52 0.0 0.0 0.00 0.00 0.00 95 1019.8
20260503230804 63 52 0.0 0.0 0.00 0.00 0.00 95 1019.8
20260503225304 63 52 0.0 0.0 0.00 0.00 0.00 95 1019.5
20260503224804 63 52 0.0 0.0 0.00 0.00 0.00 95 1019.4
20260503224304 63 52 0.0 0.0 0.00 0.00 0.00 95 1019.2
20260503223804 63 52 0.0 0.0 0.00 0.00 0.00 95 1019.0
20260503223304 63 52 0.0 0.0 0.00 0.00 0.00 96 1019.0
20260503222304 63 52 0.0 0.0 0.00 0.00 0.00 96 1018.7
20260503221804 63 52 0.0 0.0 0.00 0.00 0.00 96 1018.6
20260503221304 63 52 0.0 0.0 0.00 0.00 0.00 96 1018.5
20260503220304 62 52 0.0 0.0 0.00 0.00 0.00 96 1018.6
20260503215803 62 52 0.0 0.0 0.00 0.00 0.00 96 1018.5
20260503215304 62 52 0.0 0.0 0.00 0.00 0.00 96 1018.4
20260503213804 61 52 0.0 0.0 0.00 0.00 0.00 96 1018.5
20260503213304 61 52 0.0 0.0 0.00 0.00 0.00 96 1018.5
20260503212305 61 52 0.0 0.0 0.00 0.00 0.00 96 1018.4
20260503211804 60 52 0.0 0.0 0.00 0.00 0.00 95 1018.3
20260503211303 60 52 0.0 0.0 0.00 0.00 0.00 95 1018.2
20260503210804 60 52 0.0 0.0 0.00 0.00 0.00 95 1018.1
20260503210303 60 52 0.0 0.0 0.00 0.00 0.00 95 1018.1
20260503205803 60 52 0.0 0.0 0.00 0.00 0.00 96 1018.1
20260503205304 60 52 0.0 0.0 0.00 0.00 0.00 95 1018.1
20260503204803 60 52 0.0 0.0 0.00 0.00 0.00 95 1018.0
20260503204304 59 52 0.0 0.0 0.00 0.00 0.00 95 1018.0
20260503203804 59 52 0.0 0.0 0.00 0.00 0.00 95 1017.9
20260503203303 59 52 0.0 0.0 0.00 0.00 0.00 95 1017.9
20260503202804 59 52 0.0 0.0 0.00 0.00 0.00 95 1017.8
20260503202304 59 52 0.0 0.0 0.00 0.00 0.00 95 1017.8
20260503201804 59 52 0.0 0.0 0.00 0.00 0.00 95 1017.8
20260503201304 59 52 0.0 0.0 0.00 0.00 0.00 95 1017.7
20260503200803 59 52 0.0 0.0 0.00 0.00 0.00 95 1017.7
20260503200304 59 52 0.0 0.0 0.00 0.00 0.00 95 1017.7
20260503195304 59 52 0.0 0.0 0.00 0.00 0.00 95 1017.6
20260503194804 59 52 0.0 0.0 0.00 0.00 0.00 95 1017.5
20260503194304 59 52 0.0 0.0 0.00 0.00 0.00 95 1017.4
20260503193303 59 52 0.0 0.0 0.00 0.00 0.00 95 1017.4
20260503192804 59 52 0.0 0.0 0.00 0.00 0.00 95 1017.5
20260503192305 59 52 0.0 0.0 0.00 0.00 0.00 95 1017.4
20260503191304 59 52 0.0 0.0 0.00 0.00 0.00 95 1017.4
20260503190304 59 52 0.0 0.0 0.00 0.00 0.00 95 1017.5
20260503185804 59 52 0.0 0.0 0.00 0.00 0.00 95 1017.4
20260503184804 58 52 0.0 0.0 0.00 0.00 0.00 95 1017.5
20260503183304 58 52 0.0 0.0 0.00 0.00 0.00 95 1017.5
20260503182804 58 52 0.0 0.0 0.00 0.00 0.00 95 1017.5
20260503181804 58 52 0.0 0.0 0.00 0.00 0.00 95 1017.5
20260503181304 58 52 0.0 0.0 0.00 0.00 0.00 95 1017.5
20260503180804 58 52 0.0 0.0 0.00 0.00 0.00 95 1017.5
20260503180304 58 52 0.0 0.0 0.00 0.00 0.00 95 1017.4
20260503175804 58 52 0.0 0.0 0.00 0.00 0.00 95 1017.3
20260503174304 58 52 0.0 0.0 0.00 0.00 0.00 95 1017.4
20260503173804 58 52 0.0 0.0 0.00 0.00 0.00 95 1017.5
20260503173304 58 52 0.0 0.0 0.00 0.00 0.00 95 1017.5
20260503172804 58 52 0.0 0.0 0.00 0.00 0.00 95 1017.5
20260503172305 58 52 0.0 0.0 0.00 0.00 0.00 95 1017.5
20260503171804 58 52 0.0 0.0 0.00 0.00 0.00 94 1017.6
20260503171303 58 52 0.0 0.0 0.00 0.00 0.00 94 1017.6
20260503170804 58 52 0.0 0.0 0.00 0.00 0.00 94 1017.7
20260503170304 58 52 0.0 0.0 0.00 0.00 0.00 94 1017.7
20260503150304 59 52 0.0 0.0 0.00 0.00 0.00 93 1018.6